[Date Prev][Date Next][Thread Prev][Thread Next] - [Date Index][Thread Index][Author Index]

2 Line ISS Keps 10-13



ISS
1 25544U 98067A   02286.29178241  .00405221  00000-0  46863-2 0  2527
2 25544  51.6384 179.7725 0015480 356.4734 151.5204 15.59852029222456


----
Via the sarex mailing list at AMSAT.ORG courtesy of AMSAT-NA.
To unsubscribe, send "unsubscribe sarex" to Majordomo@amsat.org



AMSAT Top AMSAT Home